Regional Weather Roundup
Issued by NWS Nashville, TN

Home | Current Version | Previous Version | Text Only | Print | Product List | Glossary On
Versions: 1 2 3 4 5 6 7 8 9 10 11 12 13 14 15 16 17 18 19 20 21 22 23 24 25 26 27 28 29 30 31 32 33 34 35 36 37 38 39 40 41 42 43 44 45 46 47 48 49 50
000
ASUS44 KOHX 210710
RWROHX
MIDDLE TENNESSEE HOURLY WEATHER ROUNDUP
NATIONAL WEATHER SERVICE NASHVILLE TN
100 AM CST SUN DEC 21 2014

NOTE: "FAIR" INDICATES FEW OR NO CLOUDS BELOW 12,000 FEET WITH
NO SIGNIFICANT WEATHER AND/OR OBSTRUCTIONS TO VISIBILITY.

* THESE REPORTS ARE NOT UNDER NWS QUALITY CONTROL AND MAY NOT
  REPORT WEATHER SUCH AS PRECIPITATION AND FOG.


TNZ005>011-023>034-057-059-062>066-078-080-210800
...NORTHERN MIDDLE TENNESSEE...

CITY           SKY/WX    TMP DP  RH WIND       PRES   REMARKS
CLARKSVILLE    CLEAR     25  23  92 CALM      30.26F
CROSSVILLE     CLEAR     31  23  72 CALM      30.21F
GALLATIN         N/A     26  24  92 CALM      30.26F
DICKSON        CLEAR     30  27  86 NE3       30.22F
LEBANON        CLEAR     25  23  91 CALM      30.23F
LIVINGSTON     CLEAR     29  25  85 NE3       30.23F
NASHVILLE      CLEAR     30  27  88 CALM      30.26F
WEST NASHVILLE   N/A     27  27 100 CALM      30.26F
PORTLAND       CLEAR     25  23  93 CALM      30.24F
SMYRNA         CLEAR     26  23  88 CALM      30.27F
SPARTA         CLEAR     23  21  93 CALM      30.22F
$$
TNZ056-058-060-061-075>077-079-093>097-210800
...SOUTHERN MIDDLE TENNESSEE...

CITY           SKY/WX    TMP DP  RH WIND       PRES   REMARKS
COLUMBIA       CLEAR    N/A N/A N/A CALM      30.22F
LEWISBURG      CLEAR     24  21  88 CALM      30.22F
MCMINNVILLE    CLEAR     28  28 100 CALM      30.23S
MURFREESBORO   CLEAR     29  26  88 CALM      30.24F
SHELBYVILLE    CLEAR     27  25  93 CALM      30.24F
TULLAHOMA      CLEAR     28  25  86 CALM      30.22S
WINCHESTER     CLEAR     25  25 100 CALM      30.22F
$$


...KEY TO REMARKS...
VSB - VISIBILITY IN MILES
WCI - WIND CHILL INDEX
HX  - HEAT INDEX



USA.gov is the U.S. government's official web portal to all federal, state and local government web resources and services.